Tracking 23726 objects as of 24-Sep-2021
HD Live streaming from Space Station
objects crossing your sky now

STARLINK-2007

Track STARLINK-2007 now!
10-day predictions
STARLINK-2007 is classified as:


NORAD ID: 47602
Int'l Code: 2021-009BG
Perigee: 552.8 km
Apogee: 555.8 km
Inclination: 53.1 °
Period: 95.6 minutes
Semi major axis: 6925 km
RCS: Unknown
Launch date: February 4, 2021
Source: United States (US)
Launch site: AIR FORCE EASTERN TEST RANGE (AFETR)
aabbcc
Your satellite tracking list
Your tracking list is empty




NASA's NSSDC Master Catalog

Two Line Element Set (TLE):
1 47602U 21009BG  21266.89786093  .00001467  00000-0  11736-3 0  9997
2 47602  53.0519 119.0603 0002176  73.0113 287.1115 15.06402977 35582
Source of the keplerian elements: AFSPC